When you browse on this site, cookies collect data to enhance your experience and personalize the content and advertising you see.
Visit our Privacy Policy to learn more. By continuing to use the site, you agree to this use of cookies and data.
  • En España
  • Lista de países
  • Para 7 días
  • Temperatura del agua
  • Mapa Satelital
  • El tiempo en el mapa
  • Informadores
  • user-avatar
    Iniciar sesión

    Tiempo cada hora Prishtina

    Hoy, 21 Mayo, Martes

    Tiempo Temperatura Precipitaciones Viento Presión Humedad
    00:00 +5°C° 0 mm 2 mps 666 mmHg 88%
    01:00 +5°C° 0 mm 2 mps 666 mmHg 88%
    02:00 +5°C° 0 mm 2 mps 666 mmHg 88%
    03:00 +4°C° 0 mm 2 mps 666 mmHg 89%
    04:00 +4°C° 0 mm 2 mps 666 mmHg 90%
    05:00 +6°C° 0 mm 2 mps 667 mmHg 84%
    06:00 +8°C° 0 mm 2 mps 667 mmHg 78%
    07:00 +10°C° 0 mm 3 mps 667 mmHg 73%
    08:00 +11°C° 0.3 mm 3 mps 668 mmHg 69%
    09:00 +12°C° 0.3 mm 3 mps 668 mmHg 65%
    10:00 +13°C° 0.3 mm 4 mps 668 mmHg 62%
    11:00 +14°C° 0.3 mm 4 mps 668 mmHg 60%
    12:00 +14°C° 0.3 mm 5 mps 669 mmHg 58%
    13:00 +14°C° 0 mm 5 mps 669 mmHg 58%
    14:00 +14°C° 0 mm 5 mps 669 mmHg 58%
    15:00 +14°C° 0 mm 5 mps 669 mmHg 58%
    16:00 +14°C° 0 mm 5 mps 669 mmHg 58%
    17:00 +12°C° 0 mm 5 mps 669 mmHg 65%
    18:00 +10°C° 0 mm 4 mps 668 mmHg 71%
    19:00 +9°C° 0 mm 3 mps 668 mmHg 78%
    20:00 +8°C° 0 mm 3 mps 668 mmHg 81%
    21:00 +8°C° 0 mm 3 mps 669 mmHg 83%
    22:00 +7°C° 0 mm 3 mps 669 mmHg 85%
    23:00 +7°C° 0 mm 2 mps 669 mmHg 86%

    Mañana, 22 Mayo, Miércoles

    Tiempo Temperatura Precipitaciones Viento Presión Humedad
    00:00 +6°C° 0 mm 2 mps 669 mmHg 88%
    01:00 +6°C° 0 mm 2 mps 669 mmHg 90%
    02:00 +7°C° 0 mm 1 mps 669 mmHg 91%
    03:00 +6°C° 0 mm 1 mps 669 mmHg 91%
    04:00 +6°C° 0 mm 1 mps 669 mmHg 92%
    05:00 +8°C° 0 mm 1 mps 669 mmHg 86%
    06:00 +10°C° 0 mm 1 mps 670 mmHg 80%
    07:00 +13°C° 0 mm 1 mps 670 mmHg 74%
    08:00 +14°C° 0.1 mm 1 mps 670 mmHg 70%
    09:00 +15°C° 0.1 mm 2 mps 671 mmHg 67%
    10:00 +17°C° 0.1 mm 2 mps 671 mmHg 63%
    11:00 +17°C° 0.7 mm 2 mps 671 mmHg 63%
    12:00 +17°C° 0.7 mm 2 mps 671 mmHg 63%
    13:00 +18°C° 0.7 mm 2 mps 670 mmHg 62%
    14:00 +18°C° 0.6 mm 3 mps 670 mmHg 63%
    15:00 +17°C° 0.6 mm 3 mps 670 mmHg 63%
    16:00 +17°C° 0.6 mm 3 mps 670 mmHg 63%
    17:00 +14°C° 0.1 mm 3 mps 670 mmHg 69%
    18:00 +12°C° 0.1 mm 3 mps 669 mmHg 76%
    19:00 +10°C° 0.1 mm 2 mps 669 mmHg 82%
    20:00 +9°C° 0 mm 2 mps 669 mmHg 83%
    21:00 +8°C° 0 mm 2 mps 669 mmHg 85%
    22:00 +7°C° 0 mm 2 mps 669 mmHg 86%
    23:00 +7°C° 0 mm 2 mps 669 mmHg 85%

    Pasado mañana, 23 Mayo, Jueves

    Tiempo Temperatura Precipitaciones Viento Presión Humedad
    00:00 +7°C° 0 mm 1 mps 669 mmHg 83%
    01:00 +7°C° 0 mm 1 mps 669 mmHg 82%
    02:00 +7°C° 0 mm 1 mps 669 mmHg 79%
    03:00 +7°C° 0 mm 1 mps 669 mmHg 77%
    04:00 +7°C° 0 mm 1 mps 669 mmHg 74%
    05:00 +8°C° 0.1 mm 1 mps 669 mmHg 74%
    06:00 +9°C° 0.1 mm 1 mps 669 mmHg 73%
    07:00 +9°C° 0.1 mm 0 mps 669 mmHg 73%
    08:00 +11°C° 0.2 mm 1 mps 670 mmHg 74%
    09:00 +12°C° 0.2 mm 1 mps 670 mmHg 75%
    10:00 +13°C° 0.2 mm 1 mps 670 mmHg 76%
    11:00 +14°C° 0.6 mm 1 mps 670 mmHg 74%
    12:00 +16°C° 0.6 mm 1 mps 670 mmHg 72%
    13:00 +18°C° 0.6 mm 1 mps 670 mmHg 70%
    14:00 +16°C° 1.1 mm 2 mps 669 mmHg 71%
    15:00 +16°C° 1.1 mm 2 mps 669 mmHg 73%
    16:00 +16°C° 1.1 mm 2 mps 669 mmHg 74%
    17:00 +14°C° 0.9 mm 2 mps 668 mmHg 79%
    18:00 +13°C° 0.9 mm 2 mps 668 mmHg 85%
    19:00 +11°C° 0.9 mm 1 mps 668 mmHg 90%
    20:00 +10°C° 0.7 mm 1 mps 668 mmHg 91%
    21:00 +10°C° 0.7 mm 1 mps 668 mmHg 93%
    22:00 +9°C° 0.7 mm 1 mps 668 mmHg 94%
    23:00 +9°C° 0.4 mm 1 mps 668 mmHg 95%

    24 Mayo, Viernes

    Tiempo Temperatura Precipitaciones Viento Presión Humedad
    00:00 +9°C° 0.4 mm 1 mps 668 mmHg 96%
    01:00 +9°C° 0.4 mm 1 mps 668 mmHg 97%
    02:00 +9°C° 0.2 mm 1 mps 668 mmHg 97%
    03:00 +9°C° 0.2 mm 1 mps 667 mmHg 97%
    04:00 +8°C° 0.2 mm 0 mps 667 mmHg 97%
    05:00 +8°C° 0.3 mm 0 mps 667 mmHg 95%
    06:00 +9°C° 0.3 mm 0 mps 668 mmHg 93%
    07:00 +11°C° 0.3 mm 1 mps 668 mmHg 90%
    08:00 +11°C° 0.4 mm 1 mps 668 mmHg 86%
    09:00 +12°C° 0.4 mm 1 mps 668 mmHg 82%
    10:00 +13°C° 0.4 mm 1 mps 668 mmHg 79%
    11:00 +14°C° 0.6 mm 2 mps 668 mmHg 78%
    12:00 +14°C° 0.6 mm 2 mps 668 mmHg 77%
    13:00 +14°C° 0.6 mm 2 mps 668 mmHg 76%
    14:00 +14°C° 0.9 mm 2 mps 668 mmHg 77%
    15:00 +13°C° 0.9 mm 3 mps 667 mmHg 78%
    16:00 +13°C° 0.9 mm 3 mps 667 mmHg 79%
    17:00 +13°C° 0.6 mm 2 mps 667 mmHg 83%
    18:00 +12°C° 0.6 mm 1 mps 667 mmHg 87%
    19:00 +10°C° 0.6 mm 1 mps 667 mmHg 91%
    20:00 +10°C° 0.1 mm 1 mps 667 mmHg 92%
    21:00 +9°C° 0.1 mm 1 mps 667 mmHg 92%
    22:00 +7°C° 0.1 mm 0 mps 668 mmHg 93%
    23:00 +7°C° 0 mm 0 mps 668 mmHg 93%

    25 Mayo, Sábado

    Tiempo Temperatura Precipitaciones Viento Presión Humedad
    00:00 +8°C° 0 mm 1 mps 668 mmHg 94%
    01:00 +7°C° 0 mm 1 mps 668 mmHg 94%
    02:00 +7°C° 0 mm 1 mps 668 mmHg 94%
    03:00 +7°C° 0 mm 1 mps 668 mmHg 94%
    04:00 +7°C° 0 mm 1 mps 668 mmHg 93%
    05:00 +8°C° 0 mm 1 mps 668 mmHg 89%
    06:00 +10°C° 0 mm 1 mps 669 mmHg 85%
    07:00 +12°C° 0 mm 1 mps 669 mmHg 80%
    08:00 +13°C° 0 mm 1 mps 670 mmHg 72%
    09:00 +15°C° 0 mm 1 mps 670 mmHg 64%
    10:00 +18°C° 0 mm 1 mps 671 mmHg 56%
    11:00 +17°C° 0 mm 2 mps 671 mmHg 53%
    12:00 +18°C° 0 mm 2 mps 671 mmHg 51%
    13:00 +19°C° 0 mm 2 mps 671 mmHg 48%
    14:00 +19°C° 0 mm 2 mps 671 mmHg 50%
    15:00 +19°C° 0 mm 2 mps 671 mmHg 52%
    16:00 +19°C° 0 mm 2 mps 671 mmHg 53%
    17:00 +17°C° 0 mm 2 mps 670 mmHg 63%
    18:00 +15°C° 0 mm 1 mps 670 mmHg 73%
    19:00 +13°C° 0 mm 1 mps 670 mmHg 83%
    20:00 +12°C° 0 mm 1 mps 670 mmHg 85%
    21:00 +11°C° 0 mm 1 mps 670 mmHg 87%
    22:00 +10°C° 0 mm 1 mps 670 mmHg 89%
    23:00 +10°C° 0 mm 1 mps 670 mmHg 90%

    26 Mayo, Domingo

    Tiempo Temperatura Precipitaciones Viento Presión Humedad
    00:00 +10°C° 0 mm 1 mps 670 mmHg 90%
    01:00 +9°C° 0 mm 1 mps 670 mmHg 91%
    02:00 +9°C° 0 mm 1 mps 670 mmHg 90%
    03:00 +9°C° 0 mm 1 mps 670 mmHg 89%
    04:00 +9°C° 0 mm 1 mps 670 mmHg 88%
    05:00 +10°C° 0 mm 1 mps 670 mmHg 82%
    06:00 +11°C° 0 mm 0 mps 670 mmHg 77%
    07:00 +13°C° 0 mm 0 mps 671 mmHg 71%
    08:00 +15°C° 0 mm 0 mps 671 mmHg 65%
    09:00 +18°C° 0 mm 1 mps 671 mmHg 60%
    10:00 +20°C° 0 mm 1 mps 672 mmHg 54%
    11:00 +21°C° 0.2 mm 1 mps 672 mmHg 54%
    12:00 +21°C° 0.2 mm 1 mps 671 mmHg 54%
    13:00 +21°C° 0.2 mm 1 mps 671 mmHg 54%
    14:00 +20°C° 0.2 mm 2 mps 671 mmHg 55%
    15:00 +20°C° 0.2 mm 2 mps 671 mmHg 57%
    16:00 +19°C° 0.2 mm 2 mps 671 mmHg 58%
    17:00 +17°C° 0 mm 2 mps 670 mmHg 64%
    18:00 +15°C° 0 mm 2 mps 670 mmHg 70%
    19:00 +13°C° 0 mm 1 mps 670 mmHg 76%
    20:00 +13°C° 0 mm 1 mps 670 mmHg 78%
    21:00 +12°C° 0 mm 1 mps 670 mmHg 80%
    22:00 +11°C° 0 mm 1 mps 670 mmHg 81%
    23:00 +11°C° 0 mm 1 mps 670 mmHg 80%
    Mostrar más